STARLINK-36058 (66591 NORAD) Tracking and Keplerian Element Data

This shows tracking and keplerian element data for the satellite.

Feedback or suggestion? Click here.




ElementValue
Catalog66591
NameSTARLINK-36058
Epoch Orbit560
Epoch Day354.25003472
Epoch Year2025
RAAN148.8476
Inclination43.0001
Eccentricity0.000132
Argument of Perigee244.8577
Mean Anonmoly342.7195
Mean Motion15.43940024
Decay Rate-0.02387381
L11 66591U 25270D 25354.25003472 -.02387381 00000+0 -57608-1 0 9995
L22 66591 43.0001 148.8476 0001320 244.8577 342.7195 15.43940024 5602



Live tracking and technical data element details for STARLINK-36058 (NORAD 66591). STARLINK-36058 can be tracked NOW for your location showing map with azimuth and elevation plus other details from your city location.







IsCatalogInMostPopularTable: catalog: 66591, numindb: 17
Update: records affected: 1



GetName: 66591 STARLINK-36058

Hit Count: updated at: Mon, 20 Apr 2026 10:22:16 GMT